2024-174D

Last updated on Fri Oct 25 2024 00:02:04 GMT+0000 (Coordinated Universal Time)

1 61241U 24174D 24298.58586273 .00014492 00000+0 73566-3 0 9990 2 61241 97.4529 303.3600 0015582 172.5827 187.5640 15.16905139 4454
UTC large
Height (km)
Speed (km/s)
/
Latitude / Longitude
Inclination (degrees)
Orbital Period (minutes)
Azimuth
Elevation
Range (km)
Doppler Factor

Next 0 passes for location: London (51.5072 / 0.1276)

Sorry there are no passes over London.